SPACEBEE-154 (52417 NORAD) Tracking and Keplerian Element Data

This shows tracking and keplerian element data for the satellite.

Feedback or suggestion? Click here.




ElementValue
Catalog52417
NameSPACEBEE-154
Epoch Orbit813
Epoch Day167.02941882
Epoch Year2022
RAAN251.9424
Inclination97.4499
Eccentricity0.0010175
Argument of Perigee175.2844
Mean Anonmoly184.8485
Mean Motion15.13226749
Decay Rate0.00010022
L11 52417U 22047Z 22167.02941882 .00010022 00000+0 56672-3 0 9999
L22 52417 97.4499 251.9424 0010175 175.2844 184.8485 15.13226749 8135

Live tracking and technical data element details for SPACEBEE-154 (NORAD 52417). SPACEBEE-154 can be tracked NOW for your location showing map with azimuth and elevation plus other details from your city location.

Track the satellite on the map from your city or location and see movement details for azimuth, elevation, latitude, longitude, range, height, and movement on the map or in text.







IsCatalogInMostPopularTable: catalog: 52417, numindb: 1
Update: records affected: 1



GetName: 52417 SPACEBEE-154

Hit Count: updated at: Mon, 27 Jun 2022 06:15:12 GMT